Gulfport, MS

6:23 AM CST on January 17, 2017 (GMT -0600)
Gulfport-Biloxi Regional

Weather History for KGPT - November, 2011

Change the Weather History Date:

Tuesday, November 1, 2011

  Actual Average Record
Temperature  
Mean Temperature 58 °F -  
Max Temperature 73 °F 75 °F 84 °F (1950)
Min Temperature 43 °F 57 °F 31 °F (1993)
Degree Days  
Heating Degree Days 8    
Growing Degree Days 8 (Base 50)    
Moisture  
Dew Point 45 °F    
Average Humidity 70    
Maximum Humidity 93    
Minimum Humidity 31    
Precipitation  
Precipitation 0.00 in - - ()
Sea Level Pressure  
Sea Level Pressure 30.21 in    
Wind  
Wind Speed 4 mph (East)    
Max Wind Speed 17 mph    
Max Gust Speed 23 mph    
Visibility 9 miles    
Events      
Averages and records for this station are not official NWS values.
T = Trace of Precipitation, MM = Missing Value Source: NWS Daily Summary

Daily Weather History Graph

Daily Weather History Graph

Search for Another Location

Airport or City:

Trip Planner

Search our weather history database for the weather conditions in past years. The results will help you decide how hot, cold, wet, or windy it might be!

Date:

Astronomy

Nov. 01, 2011 Rise Set
Actual Time 7:10 AM CDT 6:08 PM CDT
Civil Twilight 6:45 AM CDT 6:33 PM CDT
Nautical Twilight 6:17 AM CDT 7:01 PM CDT
Astronomical Twilight 5:49 AM CDT 7:30 PM CDT
Moon 12:52 PM CDT (11/1) 11:53 PM CDT (11/1)
Length of Visible Light 11h 47m
Length of Day
10h 58m
Waxing Crescent, 40% of the Moon is Illuminated
Nov 1
Waxing Crescent
Nov 2
First Quarter
Nov 10
Full
Nov 18
Last Quarter
Nov 25
New

Hourly Weather History & Observations

Time (CDT) Temp. Windchill Dew Point Humidity Pressure Visibility Wind Dir Wind Speed Gust Speed Precip Events Conditions
12:53 AM 46.0 °F - 43.0 °F 89% 30.19 in 10.0 mi Calm Calm - N/A   Clear
1:53 AM 46.0 °F - 43.0 °F 89% 30.19 in 10.0 mi Calm Calm - N/A   Clear
2:53 AM 45.0 °F - 42.1 °F 90% 30.18 in 10.0 mi Calm Calm - N/A   Clear
3:53 AM 43.0 °F 41.3 °F 39.9 °F 89% 30.18 in 10.0 mi NNW 3.5 mph - N/A   Clear
4:53 AM 44.1 °F - 41.0 °F 89% 30.19 in 10.0 mi Calm Calm - N/A   Clear
5:53 AM 44.1 °F - 39.9 °F 85% 30.20 in 10.0 mi Calm Calm - N/A   Clear
6:53 AM 44.1 °F - 39.9 °F 85% 30.22 in 10.0 mi Calm Calm - N/A   Clear
7:53 AM 50.0 °F - 42.1 °F 74% 30.23 in 10.0 mi Calm Calm - N/A   Clear
8:53 AM 57.0 °F - 42.1 °F 57% 30.25 in 10.0 mi ENE 6.9 mph - N/A   Clear
9:53 AM 62.1 °F - 46.0 °F 56% 30.26 in 10.0 mi ENE 5.8 mph - N/A   Clear
10:53 AM 66.9 °F - 46.0 °F 47% 30.26 in 10.0 mi East 10.4 mph - N/A   Clear
11:53 AM 71.1 °F - 43.0 °F 36% 30.24 in 10.0 mi ESE 13.8 mph 21.9 mph N/A   Clear
12:53 PM 71.6 °F - 39.2 °F 31% 30.22 in 10.0 mi ESE 16.1 mph 23.0 mph N/A   Clear
1:53 PM 72.0 °F - 45.0 °F 38% 30.20 in 10.0 mi ESE 17.3 mph - N/A   Clear
2:53 PM 71.1 °F - 48.9 °F 45% 30.19 in 10.0 mi ESE 15.0 mph - N/A   Partly Cloudy
3:53 PM 70.0 °F - 50.0 °F 49% 30.20 in 10.0 mi ESE 12.7 mph - N/A   Clear
4:53 PM 68.0 °F - 50.0 °F 52% 30.19 in 10.0 mi ESE 12.7 mph - N/A   Clear
5:53 PM 64.9 °F - 51.1 °F 61% 30.19 in 10.0 mi ESE 9.2 mph - N/A   Clear
6:53 PM 62.1 °F - 52.0 °F 70% 30.20 in 10.0 mi ESE 6.9 mph - N/A   Clear
7:53 PM 55.9 °F - 50.0 °F 80% 30.21 in 10.0 mi Calm Calm - N/A   Clear
8:53 PM 54.0 °F - 48.9 °F 83% 30.21 in 10.0 mi Calm Calm - N/A   Clear
9:53 PM 51.1 °F - 48.9 °F 92% 30.22 in 9.0 mi Calm Calm - N/A   Clear
10:53 PM 50.0 °F - 48.0 °F 93% 30.22 in 2.5 mi Calm Calm - N/A   Clear
11:06 PM 51.8 °F - 48.2 °F 88% 30.22 in 5.0 mi Calm Calm - N/A   Clear
11:53 PM 51.1 °F - 48.0 °F 89% 30.21 in 5.0 mi Calm Calm - N/A   Clear